Location: Aspen Hill
(39.0796°N, 77.0730°W)
Time: 00:46:28
(UTC+00:00)

Daily predictions for brighter satellites

Satellite Brightness Start Highest point End
(mag) Time Altitude Azimuth Time Altitude Azimuth Time Altitude Azimuth
MOS 1 Rocket 3.2 00:00:02 10° NNE 00:04:22 53° E 00:08:33 10° S
Cosmos 1975 Rocket 3.0 00:01:10 10° N 00:05:28 59° E 00:09:42 10° SSE
Cosmos 2084 Rocket 3.6 00:01:55 10° NNW 00:06:20 60° NE 00:10:13 14° SE
USA 234 3.7 00:00:53 10° ENE 00:06:54 38° SE 00:12:55 10° SSW
Cosmos 1707 3.5 00:05:27 10° NNE 00:08:53 30° ENE 00:11:20 16° SE
SJ-6B 4.2 00:08:41 17° E 00:09:25 18° ENE 00:12:00 10° NNE
Abrixas rocket 4.5 00:12:11 10° NW 00:13:59 15° N 00:15:47 10° NNE
Sich 1 Rocket 3.5 00:12:29 10° S 00:16:56 74° E 00:21:27 10° N
ISS -3.7 00:14:00 10° SW 00:17:22 77° NW 00:20:14 14° NE
H-2A R/B 1.9 00:15:30 10° SSE 00:20:25 84° ENE 00:25:29 10° NNW
ARGOS 3.1 00:18:57 10° SSE 00:24:15 69° ENE 00:29:36 10° N
Cosmos 1437 3.6 00:25:38 10° NNW 00:28:32 46° W 00:31:24 10° S
SL-08 RB Rocket 3.8 00:27:10 16° SSE 00:30:39 55° ENE 00:35:08 10° N
CZ-2C R/B 2.9 00:26:12 10° NNE 00:31:36 51° E 00:37:02 10° S
Milstar 3 Cent rocket 3.7 00:31:40 10° SSW 00:35:59 18° S 00:37:15 17° SSE
Okean 2 Rocket 3.0 00:32:13 10° S 00:36:43 77° E 00:41:13 10° N
Cosmos 1844 4.1 00:32:03 10° S 00:37:14 37° ESE 00:42:24 10° NE
ATLAS 2AS CENTAUR R/B 3.8 00:35:19 10° SSE 00:46:15 15° ENE 00:47:42 10° NE
Cosmos 2263 Rocket 4.0 00:36:33 10° WSW 00:41:31 33° WNW 00:46:32 10° N
DELTA 2 R/B (1) 3.8 00:39:00 10° W 00:44:28 61° SSW 00:46:52 33° SE
CZ-2C R/B 4.3 00:40:22 10° S 00:45:13 43° W 00:50:23 10° NNW
Cosmos 1844 Rocket 2.6 00:43:00 10° S 00:48:26 58° ESE 00:53:54 10° NNE
Cosmos 1300 Rocket 3.6 00:44:25 10° S 00:48:47 80° W 00:53:13 10° N
Cosmos 2285 Rocket 4.2 00:46:40 10° S 00:52:35 45° E 00:58:33 10° NNE
Ariane Rocket 2.9 00:50:37 26° SSE 00:53:28 77° ENE 00:58:33 10° N
USA 186 1.8 00:54:52 73° W 00:54:52 73° W 00:57:58 10° NNW
CENTAUR R/B 3.9 00:49:35 10° NNW 00:56:58 37° NE 01:00:06 29° E
IRS-1A Rocket 4.3 00:55:24 21° SSE 00:59:33 86° ENE 01:05:28 10° NNW
Cosmos 1943 4.3 00:55:30 10° NW 01:00:47 42° WSW 01:06:04 10° S
Exosat Rocket 3.6 00:54:50 10° S 01:00:49 59° ESE 01:05:47 10° NNE
Cosmos 1464 Rocket 4.3 00:56:18 10° SSW 01:02:22 65° W 01:08:29 10° N
Meteor 1-15 Rocket 4.1 00:58:00 10° S 01:03:33 67° E 01:09:11 10° NNE
Cosmos 2298 Rocket 4.1 00:58:22 10° SSW 01:03:41 78° WNW 01:09:02 10° NNE
SPOT 3 Rocket 3.9 01:05:38 44° ENE 01:05:38 44° ENE 01:10:23 10° N
USA 238 DEB 4.1 00:58:45 10° NNW 01:05:48 51° NE 01:07:59 40° E
USA 238 4.1 00:58:51 10° NNW 01:05:54 51° NE 01:08:04 40° E
Cosmos 1536 Rocket 3.4 01:05:05 10° N 01:09:33 87° ENE 01:09:59 73° SSE
MetOp-A 4.0 01:07:55 42° SSE 01:09:49 84° ENE 01:15:13 10° NNW
OBJECT-B 3.1 01:14:10 18° N 01:14:10 18° N 01:15:05 10° N
Cosmos 1092 Rocket 4.0 01:07:39 10° N 01:13:41 54° E 01:14:15 52° E
Cosmos 2151 Rocket 4.4 01:13:43 10° SSW 01:18:02 51° W 01:22:24 10° N
Cosmos 1867 3.8 01:14:34 10° NW 01:19:59 64° WSW 01:21:23 46° S
Meteor 2-13 Rocket 4.4 01:14:30 10° N 01:20:38 64° E 01:21:15 61° ESE
Cosmos 2026 Rocket 4.3 01:14:49 10° N 01:20:38 47° ENE 01:20:38 47° ENE
Cosmos 1025 Rocket 3.9 01:18:11 10° NNW 01:22:24 47° W 01:23:51 34° SW
CZ-2C R/B 3.1 01:20:44 10° WSW 01:22:04 20° WSW 01:22:04 20° WSW
Cosmos 1674 4.3 01:27:01 10° N 01:29:01 29° NNW 01:29:01 29° NNW
NOSS 3-2 (A) 4.0 01:26:24 10° NNW 01:34:10 80° ENE 01:36:10 57° SE
Meteor 2-5 Rocket 3.9 01:33:16 10° N 01:38:03 61° NNE 01:38:03 61° NNE
BREEZE-M DEB (TANK) 3.7 01:36:46 10° WNW 01:40:50 82° SW 01:42:24 59° SE
Cosmos 1125 Rocket 4.1 01:38:42 10° SSW 01:43:53 55° WNW 01:49:07 10° N
Resurs 01 Rocket 3.2 01:49:34 30° N 01:49:34 30° N 01:51:49 10° NNW
USA 234 3.7 01:43:38 10° NE 01:50:02 59° NW 01:56:26 10° WSW
Cosmos 2082 Rocket 4.5 01:50:58 10° NNE 01:52:04 13° NNE 01:52:04 13° NNE
ISS -0.4 01:52:27 10° WNW 01:53:14 13° NW 01:53:14 13° NW
NOSS 3-2 (C) 3.9 02:00:42 10° NNW 02:08:28 83° ENE 02:08:32 83° ENE
ATLAS 2AS CENTAUR R/B 3.3 02:23:58 10° SW 02:33:18 59° N 02:39:48 10° NNE
CENTAUR R/B 3.5 02:40:01 10° NW 02:47:17 61° W 02:47:17 61° W
ATLAS 3B R/B 3.9 02:47:46 10° NNW 02:51:46 35° N 02:51:46 35° N
Cosmos 1697 Rocket 4.0 07:37:49 35° NE 07:37:49 35° NE 07:41:06 10° NNE
Cosmos 1980 Rocket 3.6 07:40:43 33° E 07:40:43 33° E 07:44:58 10° NE
USA 267 3.6 07:58:12 10° NE 08:04:18 52° NNW 08:04:18 52° NNW
Lacrosse 5 3.0 08:09:35 38° NNE 08:09:35 38° NNE 08:12:53 10° NE
Cosmos 1821 Rocket 4.0 08:04:25 10° N 08:10:11 75° N 08:10:11 75° N
Cosmos 44 4.1 08:20:09 43° ENE 08:20:09 43° ENE 08:23:29 10° NE
Cosmos 2228 Rocket 4.2 08:23:48 38° ESE 08:24:09 39° E 08:28:14 10° NNE
ADEOS II 3.8 08:20:01 10° N 08:22:10 21° NNW 08:22:10 21° NNW
Cosmos 1934 Rocket 4.2 08:19:19 10° N 08:25:21 65° E 08:31:23 10° SSE
Nadezhda 3 Rocket 4.2 08:32:55 51° NW 08:32:55 51° NW 08:38:08 10° N
Cosmos 2278 3.6 08:34:00 75° WNW 08:34:00 75° WNW 08:39:41 10° NNE
X-37B 3.2 08:38:14 20° NE 08:38:14 20° NE 08:39:39 10° ENE
USA 234 3.5 08:30:53 10° ESE 08:37:21 69° NE 08:43:50 10° NW
IDEFIX/ARIANE 42P 2.7 08:32:09 10° N 08:36:52 63° NW 08:36:52 63° NW
MSX 3.7 08:34:28 10° NNE 08:40:18 89° ESE 08:41:48 52° SSW
Cosmos 2369 4.3 08:42:33 41° NW 08:42:33 41° NW 08:47:29 10° N
ARIANE 5 R/B 3.4 08:39:40 10° N 08:43:09 35° NW 08:43:09 35° NW
CZ-3B R/B 4.1 08:44:41 16° NNW 08:45:36 17° N 08:49:52 10° NE
Cosmos 389 Rocket 4.5 08:47:49 22° N 08:47:49 22° N 08:49:12 10° N
USA 305 4.3 08:47:19 28° NNW 08:47:19 28° NNW 08:50:28 10° NNE
Cosmos 1605 Rocket 4.4 08:42:16 10° N 08:48:38 64° E 08:54:57 10° SSE
Cosmos 1535 Rocket 4.4 08:43:08 10° N 08:49:33 85° W 08:55:56 10° S
USA 306 4.3 08:51:15 27° NNW 08:51:15 27° NNW 08:54:32 10° NNE
ERS-2 3.7 08:52:47 10° SE 08:56:09 36° ENE 08:59:33 10° N
SJ 16-02 2.7 08:56:09 10° N 09:00:19 40° ENE 09:04:27 10° SE
H-2A R/B 2.0 08:58:09 10° SSE 09:02:29 87° ENE 09:06:56 10° NNW
PSLV R/B 3.6 08:59:04 10° NNE 09:03:16 71° ESE 09:05:14 30° S
Cosmos 1763 Rocket 4.4 08:58:56 10° S 09:03:59 47° ESE 09:09:05 10° NNE
Cosmos 1812 2.5 09:12:50 50° SSW 09:13:46 79° W 09:17:38 10° N
Cosmos 2360 Rocket 4.3 09:09:27 10° SSE 09:13:58 25° ESE 09:18:31 10° NE
ASTEX 1 4.2 09:10:10 10° NNW 09:14:18 32° WNW 09:14:18 32° WNW
BREEZE-M DEB (TANK) 3.7 09:17:25 29° NW 09:18:05 32° NNW 09:23:14 10° NE
CZ-2C R/B 2.4 09:12:58 10° NNE 09:18:07 86° WNW 09:23:04 11° SSW
Cosmos 1727 Rocket 4.1 09:12:03 10° S 09:18:23 80° E 09:24:44 10° N
BREEZE-M DEB (TANK) 3.2 09:13:55 28° WSW 09:18:33 90° ESE 09:22:01 10° ENE
Cosmos 1697 Rocket 4.2 09:19:34 19° WNW 09:19:59 19° NW 09:23:56 10° N
ERBS 2.2 09:21:44 61° W 09:22:01 65° NW 09:25:22 10° NE
SL-4 R/B 3.0 09:19:51 24° SSW 09:22:18 48° SE 09:26:53 10° ENE
Cosmos 1500 3.0 09:19:00 10° NNW 09:22:50 67° W 09:26:36 10° S
PAYLOAD A 3.7 09:19:10 10° N 09:23:49 65° WNW 09:26:52 21° SSW
Cosmos 1980 Rocket 3.0 09:22:31 29° W 09:23:51 32° WNW 09:28:54 10° N
CZ-4B R/B 2.7 09:23:02 10° SE 09:25:58 39° ENE 09:28:58 10° N
Landsat 5 3.9 09:24:11 10° S 09:28:31 46° W 09:32:52 10° NNW
Cosmos 1666 3.3 09:24:56 10° N 09:28:43 58° E 09:32:26 10° SSE
Cosmos 468 Rocket 4.0 09:24:09 13° SSW 09:28:55 88° WNW 09:34:14 10° NNE
Cosmos 2322 Rocket 2.5 09:23:37 10° S 09:29:12 67° ESE 09:34:52 10° NNE
BREEZE M DEB (TANK) 3.6 09:16:47 10° WNW 09:29:43 80° NNE 09:33:34 10° ESE
Meteor 1-10 Rocket 4.2 09:25:33 10° SSW 09:31:13 67° W 09:37:03 10° N
FENGYUN 3A 4.5 09:26:59 10° NNE 09:32:15 52° E 09:37:31 10° S
Cosmos 2263 Rocket 2.1 09:30:09 10° NNW 09:35:50 87° WSW 09:41:30 10° SSE
SL-16 R/B 2.1 09:31:24 10° SSW 09:37:02 85° WNW 09:42:44 10° NNE
CZ-2C R/B 4.4 09:38:05 10° NNW 09:40:05 17° WNW 09:40:05 17° WNW
Cosmos 546 4.5 09:39:33 20° WNW 09:42:06 71° SW 09:45:55 10° SE
Cosmos 1459 Rocket 4.5 09:38:28 10° N 09:44:31 63° E 09:50:29 10° SSE
Cosmos 2227 4.1 09:42:11 10° NNW 09:47:46 64° WSW 09:53:18 10° S
NOSS 3-3 (A) 4.4 09:45:01 20° WSW 09:48:37 41° NW 09:54:41 10° NNE
NOSS 3-3 (C) 4.4 09:45:10 20° WSW 09:48:45 41° NW 09:54:45 10° NNE
deb Chang Zheng 4 3.4 09:45:09 10° N 09:49:27 77° WNW 09:53:42 10° SSW
CZ-4B R/B 4.5 09:47:18 10° NNE 09:50:39 33° E 09:53:54 10° SSE
CZ-4B R/B 4.4 09:46:44 10° NNE 09:51:04 69° ESE 09:55:28 10° S
Lacrosse 5 3.8 09:48:47 10° WNW 09:51:47 16° NNW 09:54:56 10° NNE
SAR-Lupe-4 3.6 09:48:32 10° SSE 09:52:06 81° ENE 09:55:42 10° N
Cosmos 1707 Rocket 3.6 09:51:52 10° SSW 09:56:05 52° W 10:00:18 10° N
Cosmos 921 Rocket 4.2 09:55:09 18° W 09:56:40 22° WNW 09:59:56 10° NNW
Cosmos 1898 Rocket 3.5 09:53:21 10° NNW 09:58:38 81° WSW 10:03:54 10° SSE
Cosmos 1743 4.5 09:58:14 10° N 10:01:47 37° ENE 10:05:19 10° SSE
Cosmos 2208 Rocket 4.4 09:58:42 10° S 10:03:56 69° ESE 10:09:07 10° NNE
SAR-Lupe-1 3.9 10:00:51 10° S 10:04:24 71° WSW 10:07:58 10° NNW
ATLAS 2AS CENTAUR R/B 3.9 09:59:40 10° NNW 10:06:49 46° NE 10:13:22 10° ESE
USA 32 4.3 10:04:33 10° NNW 10:09:34 47° W 10:14:35 10° SSW
Cosmos 1689 Rocket 2.5 10:07:02 10° SSE 10:09:57 66° ENE 10:12:54 10° N
Cosmos 858 Rocket 4.5 10:05:58 10° NNW 10:11:11 88° WSW 10:16:22 10° SSE
Meteor 1-4 Rocket 4.0 10:09:30 13° WSW 10:11:26 18° WNW 10:13:56 10° NNW
ADEOS 3.8 10:07:35 10° N 10:12:37 49° WNW 10:17:36 10° SW
Cosmos 2333 Rocket 4.3 10:08:42 10° SSE 10:13:42 31° ESE 10:18:43 10° NE
SKYMED 2 4.2 10:09:27 10° SSE 10:13:43 61° ENE 10:18:01 10° N
X-37B 1.9 10:11:00 10° NW 10:13:59 35° NNE 10:16:57 10° E
Cosmos 2173 Rocket 4.0 10:08:43 10° N 10:15:02 73° W 10:21:22 10° S
Cosmos 1536 3.1 10:12:29 10° NNW 10:16:25 48° W 10:20:20 10° SSW
Cosmos 1733 Rocket 3.0 10:13:57 10° NNW 10:18:17 67° W 10:22:32 10° S
Cosmos 1484 Rocket 3.2 10:15:34 10° N 10:19:20 42° WNW 10:23:07 10° SW
ADEOS Rocket 3.6 10:13:10 10° S 10:19:48 43° W 10:25:51 10° NNW
USA 234 4.0 10:14:56 10° S 10:20:37 31° SW 10:26:18 10° WNW
ALOS 2.5 10:18:33 10° N 10:23:02 48° WNW 10:27:29 10° SW
Meteor 1-11 Rocket 4.2 10:20:03 10° NNW 10:25:18 37° W 10:30:26 10° SSW
Cosmos 2061 Rocket 4.2 10:19:16 10° N 10:25:45 89° E 10:32:11 10° S
Cosmos 1937 Rocket 3.5 10:22:11 10° NNW 10:27:15 61° WSW 10:32:17 10° S
Cosmos 1862 Rocket 3.8 10:25:42 10° SSW 10:29:56 46° W 10:34:10 10° N
Cosmos 1814 Rocket 4.0 10:24:57 10° SSW 10:30:06 70° WNW 10:35:21 10° NNE
Meteor 1-31 Rocket 3.3 10:26:37 10° N 10:30:10 37° WNW 10:33:43 10° SW
